GEFSSGP_con_prob3kmehi_000.txt.gz
EHI
0 0 0 0 0 0 0 0 0 0 0 0 0 0 0 0 0 0 0 0 0 0 0 0 0 0 0 0 1 2 2 1 1 0 0 0 0 0 0 0 0 0 0 0 0 0 0 0 0
0 0 0 0 0 0 0 0 0 0 0 0 0 0 0 0 0 0 0 0 0 0 0 0 0 0 0 1 4 7 6 4 2 1 0 0 0 0 0 0 0 0 0 0 0 0 0 0 0
0 0 0 0 0 0 0 0 0 0 0 0 0 0 0 0 0 0 0 0 0 0 2 5 3 1 0 1 6 10 10 6 3 1 0 0 0 0 0 0 0 0 0 0 0 0 0 0 0
0 0 0 0 0 0 0 0 0 0 0 0 0 0 0 0 0 0 0 0 0 0 4 10 10 4 1 3 6 9 8 7 4 1 0 0 1 0 0 0 0 0 0 0 0 0 0 0 0
0 0 0 0 0 0 0 0 0 0 0 0 0 0 0 0 0 0 0 0 0 0 3 11 15 8 4 6 8 9 9 9 6 2 0 0 0 0 0 0 0 0 0 0 0 0 0 0 0
0 0 0 0 0 0 0 0 0 0 0 0 0 0 0 0 0 0 0 0 0 0 2 8 11 8 4 6 8 9 11 12 9 4 1 0 0 0 0 0 0 0 0 0 0 0 0 0 0
0 0 0 0 0 0 0 0 0 0 0 0 0 0 0 1 0 0 0 0 0 0 1 4 5 4 4 5 8 11 13 15 16 11 5 2 1 0 0 0 0 0 0 0 0 0 0 0 0
0 0 0 0 0 0 0 0 0 0 0 0 0 0 5 7 4 0 0 0 0 0 0 0 1 2 4 6 11 18 21 24 25 18 10 5 1 0 0 0 0 0 0 0 0 0 0 0 0
0 0 0 0 0 0 0 0 0 0 0 0 0 2 8 13 6 0 0 0 0 0 0 0 0 1 2 4 10 17 21 23 22 15 8 4 1 0 2 6 6 3 0 0 0 0 0 0 0
0 0 0 0 0 0 0 0 0 0 0 0 2 5 10 9 5 1 0 0 0 0 0 0 0 0 0 1 4 7 9 10 8 5 2 1 0 0 3 10 12 4 0 0 0 1 1 0 1
0 0 0 0 0 0 0 0 0 0 0 1 10 19 16 7 3 1 0 0 0 0 0 0 0 0 0 0 1 2 2 1 1 0 0 2 3 2 2 6 7 4 1 0 1 3 3 1 1
0 0 0 0 0 0 0 0 0 0 1 7 26 41 32 18 14 8 2 0 0 0 0 0 0 0 0 0 0 1 1 0 0 0 0 3 6 4 3 6 8 6 4 7 13 12 6 2 1
0 0 0 0 0 0 0 0 0 0 2 17 47 63 54 45 43 33 17 6 7 14 13 6 1 1 0 0 0 0 0 0 0 0 0 2 3 4 7 13 15 11 11 23 34 22 6 1 0
0 0 0 0 0 0 0 0 0 0 5 27 61 79 78 77 76 66 42 22 28 49 49 34 23 15 8 4 3 1 0 0 0 0 0 0 0 1 6 11 11 10 14 30 37 22 4 0 0
0 0 0 0 0 0 0 0 0 0 7 32 68 89 93 94 92 80 56 40 56 79 84 76 64 44 22 11 7 2 0 0 0 0 0 0 1 1 2 4 4 4 9 18 22 13 2 0 0
0 0 0 0 0 0 0 0 1 1 8 36 74 94 98 96 93 81 62 59 73 88 96 97 88 61 29 12 6 3 1 0 0 0 0 0 1 1 1 2 3 2 2 6 8 4 1 0 0
0 0 0 0 0 0 0 1 4 5 14 42 77 93 92 89 89 85 78 78 82 88 96 97 83 51 20 8 5 3 1 0 0 0 0 0 1 1 0 1 2 2 1 2 2 2 4 10 13
0 0 0 0 0 0 0 1 6 14 29 50 67 75 77 79 86 90 89 87 85 88 93 86 60 28 8 3 4 3 1 0 0 0 0 0 0 0 0 0 1 1 0 0 0 1 7 19 27
0 0 0 0 0 0 0 0 5 16 33 42 46 56 70 78 81 82 77 67 61 67 73 60 32 10 2 1 2 1 0 0 0 0 0 0 0 0 0 0 0 0 0 0 0 1 4 11 16
0 0 0 0 0 0 0 0 2 7 15 18 26 51 73 74 65 57 43 28 23 28 36 30 13 2 0 0 0 0 0 0 0 0 0 0 0 0 0 0 0 0 0 0 0 0 0 0 1
0 0 0 0 0 0 0 0 0 0 1 6 26 57 74 64 43 26 13 4 2 4 10 11 5 0 0 0 0 0 0 0 0 0 0 0 0 0 0 0 0 0 0 0 0 0 0 0 0
0 0 0 0 0 0 0 0 0 1 2 8 29 55 66 52 25 7 2 0 0 0 2 3 3 3 3 2 1 1 0 0 0 0 0 0 0 0 0 0 0 0 0 0 0 0 0 0 0
0 0 0 0 0 0 0 0 0 1 1 5 17 34 45 33 11 1 0 1 1 0 0 2 7 12 15 14 13 11 5 1 0 0 0 0 0 0 0 0 0 0 0 0 0 0 0 0 0
0 0 0 0 0 0 0 0 0 1 2 6 13 22 26 18 7 3 3 6 6 4 2 4 10 19 26 27 28 28 20 9 3 1 0 0 0 0 0 0 0 0 0 0 0 0 0 0 0
0 0 0 0 0 0 0 0 0 1 3 8 17 22 18 12 7 5 6 10 13 10 11 16 18 19 22 25 31 42 39 21 7 1 0 0 0 0 0 0 0 0 0 0 0 0 0 0 0
0 0 0 0 0 0 0 0 0 0 1 4 9 11 8 5 4 3 3 6 10 10 15 26 32 33 31 30 39 57 59 34 11 2 0 0 0 0 0 0 0 0 0 0 0 0 0 0 0
0 0 0 0 0 0 0 0 0 0 0 0 0 0 0 0 0 0 0 1 2 4 8 16 29 41 43 42 52 72 77 56 27 9 2 0 0 0 0 0 0 0 0 0 0 0 0 0 0
0 0 0 0 0 0 0 0 1 0 0 0 0 0 0 0 0 0 0 0 0 0 0 2 10 20 25 27 38 56 66 61 43 21 6 0 0 0 0 0 0 0 0 0 0 0 0 0 0
0 0 0 0 0 0 0 0 0 0 0 0 0 0 0 0 0 0 0 0 0 0 0 0 0 1 2 5 11 19 26 34 34 22 7 1 0 0 0 0 0 0 0 0 0 0 0 0 0
0 0 0 0 0 0 0 0 0 0 0 0 0 0 0 0 0 0 0 0 0 0 0 0 0 0 0 0 0 0 2 9 14 12 5 1 0 0 0 0 0 0 0 0 0 0 0 0 0

GEFSSGP_con_prob3kmehi_006.txt.gz
EHI
0 0 0 0 2 4 4 1 0 0 0 0 0 0 0 1 1 1 13 38 41 15 1 2 2 1 0 0 0 0 0 0 0 0 0 0 0 0 0 0 0 0 0 0 0 0 0 0 0
0 0 0 0 1 2 1 0 0 0 0 0 0 0 0 0 0 0 12 30 25 7 1 2 2 1 0 0 0 0 0 0 0 0 0 0 0 0 0 0 0 0 0 0 0 0 0 0 0
0 0 0 0 0 0 0 0 0 0 0 0 0 0 0 0 0 0 7 14 9 1 1 3 3 1 0 0 0 0 0 0 0 0 0 0 0 0 0 0 0 0 0 0 0 0 0 0 0
0 0 0 0 0 0 0 0 0 0 0 0 0 0 0 0 0 0 2 3 2 0 2 4 3 1 0 0 0 0 0 0 0 0 0 0 0 0 0 0 0 0 0 0 0 0 0 0 0
0 0 0 0 0 0 0 0 0 0 0 0 0 0 0 0 0 0 1 2 2 3 4 4 4 2 0 0 0 0 0 0 0 0 0 0 0 0 0 0 0 0 0 0 0 0 0 0 0
0 0 0 0 0 0 0 0 0 0 0 0 0 0 0 0 0 0 1 2 6 16 18 10 5 4 1 1 1 0 0 0 0 0 0 0 0 0 0 0 0 0 0 0 0 0 0 0 0
0 0 0 0 0 0 0 0 0 0 0 0 0 0 0 0 0 0 0 1 12 34 38 17 5 5 3 2 1 0 0 0 0 0 0 0 0 0 0 0 0 0 0 0 0 0 0 0 0
0 0 0 0 0 0 0 0 0 0 0 0 1 4 5 4 1 0 0 0 13 41 45 20 9 15 11 5 7 10 7 3 1 0 0 0 0 0 0 0 0 0 0 0 0 0 0 0 0
0 0 0 0 0 0 0 0 0 0 1 8 17 25 24 14 5 3 2 1 9 29 38 26 31 40 22 15 30 34 24 12 6 2 2 2 1 0 1 5 5 2 0 0 1 2 1 0 0
0 0 0 0 0 0 0 0 0 0 4 22 48 59 49 35 27 23 19 13 7 14 22 29 53 59 29 25 59 61 42 35 24 14 20 25 17 7 6 16 21 11 3 4 9 11 6 5 8
0 0 0 0 0 0 0 0 0 0 6 32 67 79 68 61 57 55 47 35 24 16 11 20 49 62 39 41 77 80 64 66 57 43 54 63 50 31 22 32 41 30 18 19 24 25 21 24 33
0 0 0 0 0 0 0 0 0 0 5 29 63 77 75 71 65 60 55 54 57 41 19 20 47 68 63 67 88 92 84 77 72 71 78 83 76 58 43 51 61 54 47 47 46 46 47 51 58
0 0 0 0 0 0 0 0 0 0 3 21 48 66 69 62 49 44 51 70 84 72 49 49 71 85 87 88 95 98 90 69 60 73 84 83 78 58 42 50 61 60 59 63 62 58 56 55 52
0 0 0 0 0 0 0 0 0 0 2 13 32 49 57 52 40 45 67 86 96 92 84 85 93 97 97 98 99 98 91 72 59 69 81 81 72 48 29 32 42 46 50 60 61 52 43 35 27
0 0 0 0 0 0 0 0 0 0 1 7 18 33 47 49 47 64 87 97 99 99 99 99 99 99 100 100 99 95 90 84 79 77 73 67 58 43 29 25 27 34 42 50 49 38 27 18 11
0 0 0 0 0 0 0 0 0 0 0 2 6 19 43 58 64 82 96 98 99 100 100 100 100 100 100 99 94 87 86 88 85 74 60 48 37 29 28 27 23 25 33 38 33 25 18 11 6
0 0 0 0 0 0 0 0 0 0 0 0 1 15 46 73 84 93 98 96 97 99 100 100 100 99 99 95 81 70 72 72 60 53 51 39 18 11 15 18 15 12 17 21 16 14 12 6 2
0 0 0 0 0 0 0 0 0 0 0 0 2 21 58 85 95 98 97 94 94 97 98 97 97 96 94 84 62 45 42 37 27 31 38 25 8 3 5 6 6 4 5 7 7 8 8 4 1
0 0 0 0 0 0 0 0 0 0 0 1 5 29 67 91 96 94 88 85 89 94 94 91 89 84 78 68 49 31 22 13 8 16 20 11 2 1 1 1 1 0 0 1 2 3 3 2 0
0 0 0 0 0 0 0 0 0 0 1 4 13 38 71 88 85 75 63 64 76 86 81 77 77 64 54 53 41 26 18 7 3 12 23 23 14 8 4 3 1 0 0 0 0 0 0 0 0
0 0 0 0 0 0 0 0 0 3 8 14 25 46 63 66 56 43 34 42 61 72 66 65 67 48 37 39 29 20 16 8 8 20 41 50 39 21 10 5 2 1 0 0 0 0 0 0 0
0 0 0 0 0 0 0 0 3 13 27 33 35 38 40 32 23 20 24 37 54 63 63 68 67 54 45 40 35 37 36 29 32 45 62 71 57 34 18 10 5 2 0 0 0 0 0 0 0
0 0 0 0 0 0 0 0 8 29 49 48 32 21 16 11 8 12 24 37 46 53 58 64 67 67 67 64 66 73 72 65 68 76 82 82 68 49 34 26 18 9 1 0 0 0 0 0 0
0 0 0 0 0 0 0 0 11 36 55 45 22 8 5 5 6 9 16 23 28 30 35 42 50 57 63 70 78 87 90 90 91 93 93 90 79 65 52 43 34 16 2 0 0 0 0 0 0
0 0 0 0 0 0 0 3 13 29 35 26 11 3 2 3 4 5 6 8 10 10 12 18 25 30 33 39 50 62 74 82 87 89 92 94 88 76 61 47 33 14 1 0 0 0 0 0 0
0 0 0 0 0 0 1 6 13 12 10 7 3 1 1 1 1 1 1 1 2 2 2 4 9 11 10 11 15 24 36 48 58 68 79 89 91 86 71 49 26 9 0 0 0 0 0 0 0
0 0 0 0 0 0 2 9 10 5 0 0 0 0 0 0 0 0 0 0 0 0 0 0 2 3 3 1 1 3 8 15 22 35 51 67 77 84 81 64 37 13 1 0 0 0 0 0 0
0 0 0 0 0 0 2 8 13 8 2 0 0 0 0 0 0 0 0 0 0 0 0 0 0 1 1 0 0 0 0 1 4 10 22 34 45 60 74 76 55 23 4 0 0 0 0 0 0
0 0 0 0 0 0 0 5 12 10 3 0 0 0 0 0 0 0 0 0 0 0 0 0 0 0 0 0 0 0 0 0 0 1 5 10 16 27 45 62 58 32 9 1 0 0 0 0 0
0 0 0 0 0 0 0 2 6 6 2 0 0 0 0 0 0 0 0 0 0 0 0 0 0 0 0 0 0 0 0 0 0 0 0 1 3 8 21 41 52 36 12 1 0 0 0 0 0

GEFSSGP_con_prob3kmehi_012.txt.gz
EHI
0 0 0 0 0 0 0 0 0 0 0 0 0 0 0 0 0 0 0 0 4 9 19 45 64 47 16 2 0 0 0 0 0 0 0 0 0 0 0 0 0 0 0 0 0 0 0 0 0
0 0 0 0 0 0 0 0 0 0 0 0 0 0 0 0 0 0 0 0 5 12 19 42 69 58 23 4 0 0 0 0 0 0 0 0 0 0 0 0 0 0 0 0 0 0 0 0 0
0 0 0 0 0 0 0 0 0 0 0 0 0 0 0 0 0 0 0 1 5 9 15 42 74 68 33 8 1 0 0 0 0 0 0 0 0 0 0 0 0 0 0 0 0 0 0 0 0
0 0 0 0 0 0 0 0 0 0 0 0 0 0 0 2 3 2 0 0 2 2 11 42 75 75 48 21 6 1 0 0 0 0 0 0 0 0 0 0 0 0 0 0 0 0 0 0 0
0 0 0 0 0 0 0 0 0 0 0 0 0 0 0 5 9 6 1 0 0 0 7 37 71 79 62 36 13 3 0 0 0 0 0 0 0 0 0 0 0 0 0 0 0 0 0 0 0
0 0 0 0 0 0 0 0 0 0 0 0 0 0 0 5 10 6 1 0 0 0 4 24 52 65 58 38 15 3 0 0 0 0 0 0 0 0 0 0 0 0 0 0 0 0 0 0 0
0 0 0 0 0 0 0 0 0 0 0 0 0 0 0 2 5 3 0 0 0 0 2 11 21 31 33 25 11 4 0 0 0 0 0 0 0 0 0 0 0 0 0 0 0 0 0 0 0
0 0 0 0 0 0 0 0 0 0 1 1 1 0 0 1 3 4 3 2 1 0 1 3 4 6 10 10 8 5 3 1 0 0 0 0 0 0 0 0 0 0 0 0 0 0 0 0 0
0 0 0 0 0 0 0 0 0 1 3 6 5 2 1 4 8 11 16 20 13 3 1 1 2 1 2 3 4 5 4 2 0 0 0 0 0 0 0 0 0 0 0 0 0 0 0 0 0
0 0 0 0 0 0 0 0 1 2 6 9 9 5 5 8 13 18 33 50 44 20 5 0 0 1 1 1 1 2 2 1 0 0 0 0 0 0 0 0 0 0 0 0 0 0 0 0 0
0 0 0 0 0 0 0 0 1 2 6 10 11 9 7 9 12 18 38 67 76 52 21 4 0 0 1 0 0 0 0 0 0 0 0 0 0 0 0 0 0 0 0 0 0 1 0 0 0
0 0 0 0 0 0 0 0 0 1 5 12 18 15 8 6 8 12 30 62 85 77 44 14 2 0 0 0 0 0 0 0 0 0 0 0 0 0 0 0 0 0 0 0 0 0 0 0 1
0 0 0 0 0 0 0 0 0 1 8 23 33 26 14 8 8 12 26 52 79 82 59 27 8 3 2 2 4 5 4 3 1 0 2 4 2 0 0 0 0 0 0 0 0 0 0 0 1
0 0 0 0 0 0 0 0 0 4 19 42 54 43 27 20 19 23 34 51 67 71 58 36 21 18 19 22 25 26 25 21 14 7 7 8 5 1 0 0 0 0 0 0 0 0 0 0 1
0 0 0 0 0 0 0 0 0 7 29 54 66 57 41 34 33 34 38 44 48 49 45 37 35 39 46 52 54 54 51 43 30 17 10 8 5 1 0 0 0 0 0 0 0 0 0 0 0
0 0 0 0 0 0 0 0 0 8 28 52 64 61 47 37 32 28 24 22 22 23 26 30 35 44 53 58 60 62 57 45 30 18 9 4 2 1 0 0 0 0 0 0 0 0 0 0 0
0 0 0 0 0 0 0 1 2 10 26 46 56 53 42 29 19 13 9 7 5 6 11 17 22 29 35 37 40 43 39 26 16 10 5 2 1 0 0 0 0 0 0 0 0 0 0 0 0
0 0 0 0 0 0 0 1 5 12 25 37 41 36 27 16 7 5 5 3 1 1 3 6 9 14 17 17 18 19 15 8 5 4 2 1 1 0 0 0 0 0 0 0 0 0 0 0 0
0 0 0 0 0 0 0 1 4 9 16 20 19 16 12 6 2 2 3 2 0 0 1 1 3 5 6 6 6 4 2 0 0 1 0 0 0 0 0 0 0 0 0 0 0 0 0 0 0
0 0 0 0 0 0 0 0 1 3 5 5 4 4 3 1 0 1 1 0 0 0 0 0 0 1 1 1 1 0 0 0 0 0 0 0 0 0 0 0 0 0 0 0 0 0 0 0 0
0 0 0 0 0 0 0 0 0 0 0 1 1 1 1 0 0 0 0 0 0 0 0 0 0 0 0 0 0 1 0 0 0 0 0 0 0 0 0 0 0 0 0 0 0 0 0 0 0
0 0 0 0 0 0 0 0 0 0 0 0 0 0 0 0 0 0 0 0 0 0 0 0 0 0 0 0 1 2 1 0 0 0 0 0 0 0 0 0 0 0 0 0 0 0 0 0 0
0 0 0 0 0 0 0 0 0 0 0 0 0 0 0 0 0 0 0 0 0 0 0 0 0 0 0 0 0 1 0 0 0 0 0 0 0 0 0 0 0 0 0 0 0 0 0 0 0
0 0 0 0 0 0 0 0 0 0 0 0 0 0 0 0 0 0 0 0 0 0 0 0 0 0 0 0 0 0 0 0 0 0 0 0 0 0 0 0 0 0 0 0 0 0 0 0 0
0 0 0 0 0 0 0 0 0 0 0 0 0 0 0 0 0 0 0 0 0 0 0 0 0 0 0 0 0 0 0 0 0 0 0 0 0 0 0 0 0 0 0 0 0 0 0 0 0
0 0 0 0 0 0 0 0 0 0 0 0 0 0 0 0 0 0 0 0 0 0 0 0 0 0 0 0 0 0 0 0 0 0 0 0 0 0 0 0 0 0 0 0 0 0 0 0 0
0 0 0 0 0 0 0 0 0 0 0 0 0 0 0 0 0 0 0 0 0 0 0 0 0 0 0 0 0 0 0 0 0 0 0 0 0 0 0 0 0 0 0 0 0 0 0 0 0
0 0 0 0 0 0 0 0 0 0 0 0 0 0 0 0 0 0 0 0 0 0 0 0 0 0 0 0 0 0 0 0 0 0 0 0 0 0 0 0 0 0 0 0 0 0 0 0 0
0 0 0 0 0 0 0 0 0 0 0 0 0 0 0 0 0 0 0 0 0 0 0 0 0 0 0 0 0 0 0 0 0 0 0 0 0 0 0 0 0 0 0 0 0 0 0 0 0
0 0 0 0 0 0 0 0 0 0 0 0 0 0 0 0 0 0 0 0 0 0 0 0 0 0 0 0 0 0 0 0 0 0 0 0 0 0 0 0 0 0 0 0 0 0 0 0 0

GEFSSGP_con_prob3kmehi_018.txt.gz
EHI
0 0 0 0 0 0 0 0 0 0 0 0 0 0 0 0 0 0 0 0 0 1 3 5 5 4 3 1 0 0 0 0 0 0 0 0 0 0 0 0 0 0 0 0 0 0 0 0 0
0 0 0 0 0 0 0 0 0 0 0 0 0 0 0 0 0 0 0 0 0 1 2 7 14 14 9 4 1 0 0 0 0 0 0 0 0 0 0 0 0 0 0 0 0 0 0 0 0
0 0 0 0 0 0 0 0 0 0 0 0 0 0 0 0 0 0 0 0 1 1 2 14 32 32 20 10 2 0 0 0 0 0 0 0 0 0 0 0 0 0 0 0 0 0 0 0 0
0 0 0 0 0 0 0 0 0 0 0 0 0 0 0 0 0 0 0 1 4 6 5 23 52 55 35 17 4 0 0 0 0 0 0 0 0 0 0 0 0 0 0 0 0 0 0 0 0
0 0 0 0 0 0 0 0 0 0 0 0 0 0 0 0 0 0 0 3 12 16 13 32 68 77 54 29 11 3 1 0 0 0 0 0 0 0 0 0 0 0 0 0 0 0 0 0 0
0 0 0 0 0 0 0 0 0 0 0 0 0 0 1 1 1 1 1 6 19 27 26 41 72 84 69 45 23 12 7 4 1 0 0 0 0 0 0 0 0 0 0 0 0 0 0 0 0
0 0 0 0 0 0 0 0 0 0 0 0 0 0 1 3 4 5 4 10 23 34 39 49 65 71 64 50 33 22 15 8 3 1 0 0 0 0 0 0 0 0 0 0 0 0 0 0 0
0 0 0 0 0 0 0 0 0 0 0 0 0 0 2 11 19 19 13 14 25 34 40 50 55 52 45 38 30 25 19 13 7 3 1 0 0 0 0 0 0 0 0 0 0 0 0 0 0
0 0 0 0 0 0 0 0 0 0 0 0 0 2 12 32 47 42 29 22 24 29 32 39 43 40 33 25 20 19 19 17 13 9 6 4 2 0 0 0 0 0 0 0 0 0 0 0 0
0 0 0 0 0 0 0 0 0 0 0 0 0 7 29 59 71 65 51 35 25 22 23 26 29 31 28 21 16 16 21 23 24 23 18 13 7 3 1 0 0 0 0 0 0 0 0 0 0
0 0 0 0 0 0 0 0 0 0 0 0 2 15 44 71 80 78 69 50 31 19 16 16 18 20 21 18 15 18 23 27 31 35 36 28 17 8 4 2 1 0 0 0 0 0 0 0 0
0 0 0 0 0 0 0 0 0 0 2 4 8 24 49 67 73 74 70 57 40 23 14 11 12 12 12 11 12 15 20 24 28 37 44 39 24 12 7 3 1 0 0 0 0 1 1 1 0
0 0 0 0 0 0 0 0 0 2 5 10 17 32 47 54 56 56 54 47 37 25 16 11 9 7 6 6 7 9 12 16 21 29 35 32 21 10 5 2 1 0 0 0 0 1 2 1 0
0 0 0 0 0 0 0 1 2 4 8 15 22 31 38 39 36 34 30 24 20 16 13 9 7 6 6 6 7 7 9 10 13 16 19 17 12 5 1 0 0 0 0 0 0 1 1 0 0
0 0 0 0 0 0 1 4 7 7 8 15 20 22 24 23 19 14 10 7 5 5 5 5 4 5 7 7 7 8 7 6 6 6 8 8 5 2 1 0 0 0 0 0 0 0 0 0 0
0 0 0 0 0 0 1 5 7 6 7 10 12 13 12 11 8 4 1 1 0 0 1 1 2 3 4 5 5 6 5 3 3 3 3 4 2 1 1 0 0 0 0 0 0 0 0 0 0
0 0 0 0 0 0 1 2 3 2 2 3 4 5 5 4 2 1 0 0 0 0 0 0 0 1 1 2 3 4 3 3 4 3 2 2 1 0 1 0 0 0 0 0 0 0 0 0 0
0 0 0 0 0 0 0 0 0 0 0 0 1 1 1 0 0 0 0 0 0 0 0 0 0 0 0 0 2 3 2 2 3 2 1 1 0 0 1 0 0 0 0 0 0 0 0 0 0
0 0 0 0 0 0 0 0 0 0 0 0 0 0 0 0 0 0 0 0 0 0 0 0 0 0 0 0 0 1 1 1 0 0 0 0 0 0 0 0 0 0 0 0 0 0 0 0 0
0 0 0 0 0 0 0 0 0 0 0 0 0 0 0 0 0 0 0 0 0 0 0 0 0 0 0 0 0 0 0 0 0 0 0 0 1 0 0 0 0 0 0 0 0 0 0 0 0
0 0 0 0 0 0 0 0 0 0 0 0 0 0 0 0 0 0 0 0 0 0 0 0 0 0 0 0 0 0 0 0 0 0 0 0 0 0 0 0 0 0 0 0 0 0 0 0 0
0 0 0 0 0 0 0 0 0 0 0 0 0 0 0 0 0 0 0 0 0 0 0 0 0 0 0 0 0 0 0 0 0 0 0 0 0 0 0 0 0 0 0 0 0 0 0 0 0
0 0 0 0 0 0 0 0 0 0 0 0 0 0 0 0 0 0 0 0 0 0 0 0 0 0 0 0 0 0 0 0 0 0 0 0 0 0 0 0 0 0 0 0 0 0 0 0 0
0 0 0 0 0 0 0 0 0 0 0 0 0 0 0 0 0 0 0 0 0 0 0 0 0 0 0 0 0 0 0 0 0 0 0 0 0 0 0 0 0 0 0 0 0 0 0 0 0
0 0 0 0 0 0 0 0 0 0 0 0 0 0 0 0 0 0 0 0 0 0 0 0 0 0 0 0 0 0 0 0 0 0 0 0 0 0 0 0 0 0 0 0 0 0 0 0 0
0 0 0 0 0 0 0 0 0 0 0 0 0 0 0 0 0 0 0 0 0 0 0 0 0 0 0 0 0 0 0 0 0 0 0 0 0 0 0 0 0 0 0 0 0 0 0 0 0
0 0 0 0 0 0 0 0 0 0 0 0 0 0 0 0 0 0 0 0 0 0 0 0 0 0 0 0 0 0 0 0 0 0 0 0 0 0 0 0 0 0 0 0 0 0 0 0 0
0 0 0 0 0 0 0 0 0 0 0 0 0 0 0 0 0 0 0 0 0 0 0 0 0 0 0 0 0 0 0 0 0 0 0 0 0 0 0 0 0 0 0 0 0 0 0 0 0
0 0 0 0 0 0 0 0 0 0 0 0 0 0 0 0 0 0 0 0 0 0 0 0 0 0 0 0 0 0 0 0 0 0 0 0 0 0 0 0 0 0 0 0 0 0 0 0 0
0 0 0 0 0 0 0 0 0 0 0 0 0 0 0 0 0 0 0 0 0 0 0 0 0 0 0 0 0 0 0 0 0 0 0 0 0 0 0 0 0 0 0 0 0 0 0 0 0

GEFSSGP_con_prob3kmehi_024.txt.gz
EHI
0 0 0 0 0 0 0 0 0 0 0 0 0 0 0 0 0 0 0 0 14 50 66 44 15 3 0 0 0 0 0 2 7 13 16 11 3 0 0 0 0 0 0 0 0 0 0 0 0
0 0 0 0 0 0 0 0 0 0 0 0 0 0 0 0 0 0 0 0 9 32 48 33 12 2 0 0 0 0 0 1 3 6 7 5 1 0 0 0 0 0 0 0 0 0 0 0 0
0 0 0 0 0 0 0 0 0 0 0 0 0 0 0 0 0 0 0 0 3 14 26 26 12 2 0 0 0 0 0 0 1 1 1 0 0 0 0 0 0 0 0 0 0 0 0 0 0
0 0 0 0 0 0 0 0 0 0 0 0 0 0 0 0 0 0 0 0 2 5 15 24 15 2 0 0 0 0 0 0 0 0 0 0 0 0 0 0 0 0 0 0 0 0 0 0 0
0 0 0 0 0 0 0 0 0 0 0 0 0 0 1 1 1 0 0 0 0 1 9 17 13 3 0 0 0 0 0 0 0 0 0 0 0 0 0 0 0 0 0 1 0 0 0 0 0
0 0 0 0 0 0 0 0 0 0 0 0 0 0 2 5 5 3 2 0 0 0 4 9 7 2 1 1 0 0 0 0 0 0 0 0 0 0 0 0 0 0 0 0 0 0 0 0 0
0 0 0 0 0 0 0 0 0 0 0 0 0 0 6 17 24 24 19 10 4 1 2 3 2 2 4 5 5 5 4 4 3 2 0 0 0 0 0 0 0 0 0 0 0 0 0 0 0
0 0 0 0 0 0 0 0 0 0 0 0 0 1 14 39 57 60 53 39 25 14 6 3 2 3 6 10 13 15 15 14 11 7 2 1 0 0 0 0 0 0 0 0 0 0 0 0 0
0 0 0 0 0 0 0 0 0 0 0 0 0 3 20 51 73 80 77 68 55 38 24 18 15 11 8 12 21 27 28 30 26 18 13 8 4 1 0 5 8 5 0 0 0 0 0 0 0
0 0 0 0 0 0 0 0 0 0 1 3 4 5 16 38 58 69 76 76 68 52 40 36 32 24 17 19 30 36 38 44 44 39 37 32 23 15 9 15 22 12 2 0 0 0 0 0 1
0 0 0 0 0 0 0 0 1 2 5 10 11 8 11 22 37 53 65 67 59 46 37 35 34 30 26 28 36 41 43 48 52 53 58 61 56 45 35 33 32 21 9 4 6 6 3 1 2
0 0 0 0 0 0 0 0 2 5 9 16 21 21 22 28 41 56 63 58 48 37 27 23 24 24 25 29 33 37 41 44 47 52 59 69 75 73 65 58 47 33 22 15 14 15 8 3 4
0 0 0 0 0 0 1 0 2 5 10 18 30 41 45 50 60 67 65 54 45 37 26 18 16 16 17 21 25 27 28 32 37 41 47 58 72 79 79 75 63 44 31 27 23 18 13 11 11
0 0 0 0 0 0 0 0 2 5 9 17 30 41 48 53 57 57 54 46 39 34 25 15 10 9 10 13 16 15 14 18 25 29 32 42 56 66 69 67 58 41 31 30 25 17 14 16 15
0 0 0 0 0 0 0 0 1 3 6 11 17 21 25 29 31 30 29 25 20 18 14 8 4 4 5 7 7 6 6 9 15 18 20 25 36 45 49 47 37 28 24 23 20 14 12 11 10
0 0 0 0 0 0 0 0 0 1 2 3 4 5 7 9 9 9 8 6 4 4 3 2 1 1 2 3 2 1 2 4 8 11 12 15 21 26 32 31 24 19 18 15 11 8 6 6 4
0 0 0 0 0 0 0 0 0 0 0 0 0 1 2 3 2 1 0 1 1 1 1 1 0 0 1 1 0 0 0 1 3 4 6 9 12 16 19 22 19 15 13 11 6 3 3 3 3
0 0 0 0 0 0 0 0 0 0 0 0 0 0 1 2 2 0 0 2 3 3 2 1 0 0 0 0 0 0 0 0 1 1 2 3 6 9 13 14 13 11 9 7 5 3 2 1 1
0 0 0 0 0 0 0 0 0 0 0 0 0 1 1 1 1 0 0 1 1 1 1 0 0 0 0 0 0 0 0 0 0 0 0 1 2 6 10 11 9 6 5 5 4 3 3 1 0
0 0 0 0 0 0 0 0 0 0 0 0 0 1 1 0 0 0 0 0 0 0 0 0 0 0 0 0 0 0 0 0 0 0 0 0 0 3 7 10 8 4 3 4 3 3 2 1 1
0 0 1 1 1 0 0 0 0 0 0 0 0 1 1 0 0 0 0 0 0 0 0 0 0 0 0 0 0 0 0 0 0 0 0 0 0 1 4 6 5 3 2 3 2 1 1 1 0
0 1 2 3 1 0 0 0 1 0 0 0 0 0 0 0 0 0 0 0 0 0 0 0 0 0 0 0 0 0 0 0 0 0 0 0 0 0 2 2 2 2 1 1 1 0 0 0 0
0 1 2 2 1 0 0 1 2 1 0 0 0 0 0 0 0 0 0 0 0 0 0 0 0 0 0 0 0 0 0 0 0 0 0 0 0 0 0 0 1 1 1 0 0 0 0 0 0
0 0 0 0 0 0 0 2 4 3 0 0 0 0 0 0 0 0 0 0 0 0 0 0 0 0 0 0 0 0 0 0 0 0 0 0 0 0 0 0 0 0 0 1 1 1 0 0 0
0 0 0 0 0 0 0 3 7 5 1 0 0 0 0 0 0 0 0 0 0 0 0 0 0 0 0 0 0 0 0 0 0 0 0 0 0 0 0 0 0 0 0 1 1 1 0 0 0
0 0 0 0 0 0 0 3 6 4 0 0 0 0 0 0 0 0 0 0 0 0 0 0 0 0 0 0 0 0 0 0 0 0 0 0 0 0 0 0 0 0 0 0 0 0 0 0 0
0 0 0 0 0 0 0 2 2 1 0 0 0 0 0 0 0 0 0 0 0 0 0 0 0 0 0 0 0 0 0 0 0 0 0 0 0 0 0 0 0 0 0 0 0 0 0 0 0
0 0 0 0 0 0 0 0 0 0 0 0 0 0 0 0 0 0 0 0 0 0 0 0 0 0 0 0 0 0 0 0 0 0 0 0 0 0 0 0 0 0 0 0 0 0 0 0 0
0 0 0 0 0 0 0 0 0 0 0 0 0 0 0 0 0 0 0 0 0 0 0 0 0 0 0 0 0 0 0 0 0 0 0 0 0 0 0 0 0 0 0 0 0 0 0 0 0
0 0 0 0 0 0 0 0 0 0 0 0 0 0 0 0 0 0 0 0 0 0 0 0 0 0 0 0 0 0 0 0 0 0 0 0 0 0 0 0 0 0 0 0 0 0 0 0 0

GEFSSGP_con_prob3kmehi_030.txt.gz
EHI
0 0 0 0 4 8 5 1 0 0 0 0 0 0 0 1 1 1 18 59 91 93 79 69 59 39 19 12 8 4 1 1 1 0 0 0 0 0 0 0 0 0 0 0 0 0 0 0 0
0 0 0 0 2 3 2 0 0 0 0 0 0 0 0 0 0 1 19 58 89 86 67 59 53 33 15 8 6 4 3 3 3 3 2 2 1 0 0 0 0 0 0 0 0 0 0 0 0
0 0 0 1 2 1 0 0 0 0 0 0 0 0 0 0 0 2 19 56 86 82 65 58 48 28 11 4 3 3 3 5 6 6 5 4 2 0 0 0 0 0 0 0 0 0 0 0 0
0 0 0 0 1 0 0 0 0 0 0 0 3 4 2 0 1 2 18 54 82 84 73 62 48 28 11 3 1 1 3 4 5 6 6 4 1 0 0 0 0 0 0 0 0 0 0 0 0
0 0 0 0 0 0 0 0 0 0 0 1 9 14 8 0 1 2 15 44 72 83 77 62 47 29 12 4 2 3 3 3 3 4 3 2 1 0 0 0 0 0 0 1 2 2 1 0 0
0 0 0 0 0 0 0 0 0 0 0 1 12 21 12 1 0 1 9 27 57 81 79 60 42 26 12 6 4 4 3 2 1 1 1 1 0 0 1 1 1 1 3 7 10 8 5 2 1
0 0 0 0 0 0 0 0 0 0 0 2 11 20 16 5 0 1 4 17 47 77 73 46 28 19 11 7 6 5 4 3 2 2 1 1 0 0 2 5 7 9 14 22 25 21 14 9 6
0 0 0 0 0 0 0 0 0 1 5 11 18 24 21 9 1 1 3 13 39 61 54 31 22 21 15 14 16 15 11 7 5 5 4 3 1 1 4 12 22 31 36 39 38 31 23 17 13
0 0 0 0 0 0 0 0 0 3 13 24 31 30 21 9 2 4 7 13 27 41 37 30 36 33 22 27 36 32 23 18 13 10 10 9 5 3 6 20 41 55 56 53 45 35 28 22 16
0 0 0 0 0 0 0 0 0 6 21 36 41 34 24 17 16 22 27 27 29 36 39 45 55 52 41 44 54 45 36 38 32 25 30 30 19 8 8 28 57 70 67 63 56 47 37 25 16
0 0 0 0 0 0 0 2 7 16 32 47 51 46 40 42 48 56 59 56 53 54 58 63 69 69 63 61 60 50 46 52 50 45 54 57 44 25 17 34 64 77 75 72 70 64 49 29 18
0 0 0 0 0 0 1 5 16 30 43 55 65 67 67 72 79 84 85 83 81 79 78 78 78 77 73 66 56 47 45 48 51 56 65 70 65 49 36 43 61 70 70 68 65 60 47 29 20
0 0 0 0 0 1 4 8 17 31 44 55 69 79 84 87 91 93 94 94 94 90 85 80 76 72 68 61 51 41 36 35 38 47 57 62 66 63 56 51 51 52 53 50 45 41 35 28 24
0 0 0 0 0 2 4 8 13 24 36 46 59 72 79 83 84 85 85 86 85 84 80 72 61 54 54 51 43 33 27 27 29 35 41 45 50 57 58 50 40 36 37 36 32 28 28 29 29
0 0 0 0 0 1 4 9 13 15 22 30 40 50 58 62 63 61 61 62 64 68 71 62 43 34 37 36 29 23 20 22 27 31 30 28 32 40 45 39 29 24 25 25 23 22 24 24 24
0 0 0 0 0 0 6 15 14 9 13 19 23 27 33 36 34 31 34 39 45 53 60 53 34 25 24 19 14 11 12 17 23 28 28 23 20 24 28 24 18 15 14 13 13 14 15 14 14
0 0 0 0 0 0 9 19 14 7 11 15 13 12 14 15 13 12 15 21 28 36 42 39 28 20 15 9 5 5 8 12 16 22 28 26 17 13 13 12 10 8 6 4 5 6 6 5 6
0 0 0 0 0 1 8 17 14 8 10 13 12 8 6 5 5 5 6 8 12 17 22 22 18 14 10 6 3 3 5 8 12 18 26 25 15 9 7 7 5 3 2 1 1 2 1 1 2
0 0 0 0 0 1 6 12 11 8 11 15 15 9 5 2 1 1 1 2 3 6 8 9 11 12 9 5 4 4 4 6 9 13 17 16 11 7 7 6 4 2 2 1 0 0 0 0 1
0 0 0 1 0 1 4 8 9 9 11 14 12 7 3 1 0 0 0 1 2 3 4 6 11 12 8 5 3 3 3 2 4 7 10 9 7 5 5 5 4 3 2 2 0 0 0 0 0
0 0 0 0 0 1 3 5 9 10 7 6 5 2 1 0 0 0 0 0 0 1 1 4 10 11 8 4 2 1 1 0 0 2 4 4 3 2 2 3 3 2 3 2 0 0 0 0 0
0 0 0 0 0 1 1 3 8 9 5 2 2 1 0 0 0 0 0 0 0 0 0 2 5 7 6 3 0 0 0 0 0 0 1 1 1 0 1 1 1 1 3 2 1 0 0 0 0
0 0 0 0 0 0 1 2 5 7 6 5 4 1 0 0 0 0 0 0 0 0 0 0 1 2 2 1 0 0 0 0 0 0 0 0 0 0 0 0 0 0 1 2 1 0 0 0 0
0 0 0 0 0 0 0 2 4 6 8 10 6 2 0 0 0 0 0 0 0 0 0 0 0 0 0 0 0 0 0 0 0 0 0 0 0 0 0 0 0 0 0 0 1 1 0 0 0
0 0 0 0 1 0 0 2 5 6 8 8 5 2 0 0 0 0 0 0 0 0 0 0 0 0 0 0 0 0 0 0 0 0 0 0 0 0 0 0 0 0 0 0 0 0 0 0 0
0 0 0 0 0 0 2 6 8 6 4 3 2 0 0 0 0 0 0 0 0 0 0 0 0 0 0 0 0 0 0 0 0 0 0 0 0 0 0 0 0 0 0 0 0 0 0 0 0
0 0 0 0 0 0 4 10 8 3 1 1 0 0 0 0 0 0 0 0 0 0 0 0 0 0 0 0 0 0 0 0 0 0 0 0 0 0 0 0 0 0 0 0 0 0 0 0 0
0 0 0 0 0 0 3 6 5 1 0 0 0 0 0 0 0 0 0 0 0 0 0 0 0 0 0 0 0 0 0 0 0 0 0 0 0 0 0 0 0 0 0 0 0 0 0 0 0
0 0 0 0 0 0 0 1 1 0 0 0 0 0 0 0 0 0 0 0 0 0 0 0 0 0 0 0 0 0 0 0 0 0 0 0 0 0 0 0 0 0 0 0 0 0 0 0 0
0 0 0 0 0 0 0 0 0 0 0 0 0 0 0 0 0 0 0 0 0 0 0 0 0 0 0 0 0 0 0 0 0 0 0 0 0 0 0 0 0 0 0 0 0 0 0 0 0

GEFSSGP_con_prob3kmehi_036.txt.gz
EHI
0 0 0 0 0 1 2 2 1 0 0 0 1 2 2 3 4 4 11 34 58 55 45 50 57 57 60 62 52 30 13 5 4 3 3 3 3 3 3 3 3 3 3 3 3 3 3 3 3
0 0 0 0 0 0 1 1 0 0 0 0 0 1 1 4 6 6 12 34 56 52 42 48 60 62 64 67 61 42 21 9 5 3 3 3 3 3 3 3 3 3 3 3 3 3 3 3 3
0 0 0 1 1 1 1 0 0 0 0 0 0 0 1 4 10 11 18 37 52 47 39 48 64 69 70 71 69 56 35 18 9 4 3 3 3 3 3 3 3 3 3 3 3 3 3 3 3
0 0 0 1 2 2 3 2 2 2 2 1 0 0 0 9 24 31 31 39 48 43 36 46 61 67 68 69 68 59 43 26 13 6 4 4 4 4 3 3 3 3 3 3 3 3 3 3 3
0 0 0 0 1 1 2 3 6 9 7 3 1 0 2 20 49 56 41 34 39 36 30 37 50 55 55 54 53 47 36 24 13 7 6 6 5 5 4 4 4 3 3 3 4 4 3 3 3
0 0 0 0 0 0 1 3 11 16 14 9 4 1 4 27 59 64 42 27 25 24 19 22 31 35 33 31 29 26 22 17 10 6 6 6 5 4 4 4 4 4 3 4 5 5 5 5 5
0 0 0 0 0 0 1 5 14 23 24 16 8 3 4 23 52 64 49 29 18 13 10 9 11 14 14 12 11 10 10 9 6 4 4 4 4 3 3 4 4 4 4 5 6 6 8 9 9
0 0 0 0 0 0 3 11 23 34 37 30 19 10 10 24 54 74 66 44 26 13 6 4 3 4 5 5 5 4 4 4 4 3 3 3 3 3 3 3 3 4 6 7 7 10 15 16 14
0 0 0 0 0 1 6 17 33 47 56 52 39 30 31 45 69 85 80 61 42 26 14 8 6 4 4 3 3 3 3 3 3 4 4 4 3 3 4 4 4 6 8 11 14 21 27 27 24
0 0 0 0 0 3 11 23 39 57 69 67 59 54 59 70 83 89 84 73 60 47 34 24 18 12 7 5 4 4 4 4 5 6 7 6 5 4 5 4 5 8 12 17 26 36 42 42 40
0 0 0 0 0 5 16 30 47 65 74 74 71 74 78 82 87 88 86 82 75 65 54 46 37 29 21 14 9 5 5 7 7 8 9 8 6 5 5 4 5 7 13 22 35 45 49 48 47
0 0 0 0 2 9 22 36 53 67 75 78 80 83 85 84 84 84 82 80 76 69 63 57 50 42 33 22 12 6 6 8 8 7 6 6 6 5 4 4 3 5 11 22 33 40 42 40 36
0 0 0 1 5 16 31 43 53 60 66 73 78 81 80 79 76 72 68 65 61 58 53 48 42 34 26 17 9 6 6 6 5 4 5 5 4 4 3 2 2 3 7 13 20 24 26 25 21
0 0 0 1 6 18 35 47 48 45 47 55 62 65 63 60 57 53 49 46 43 38 32 28 23 17 12 8 6 5 5 3 2 3 5 5 5 3 3 2 2 2 2 5 7 11 13 13 12
0 0 0 1 3 11 27 39 35 28 28 33 39 42 39 34 32 32 30 28 26 21 16 13 10 8 6 5 4 3 2 1 1 2 3 4 4 3 3 3 2 1 0 1 2 4 6 7 7
0 0 0 0 0 4 14 22 20 16 15 16 19 21 19 15 15 16 15 14 13 11 8 7 6 5 3 2 2 1 1 0 0 0 0 1 2 2 2 2 2 1 0 0 1 1 2 4 5
0 0 0 0 0 1 6 11 12 11 9 8 8 9 8 6 6 7 6 6 6 5 3 3 3 3 1 1 1 0 0 0 0 0 0 0 1 1 1 1 1 0 0 0 0 0 0 2 3
0 0 0 0 0 1 3 7 9 8 7 5 4 4 4 3 2 2 2 2 2 2 1 1 1 1 0 0 0 0 0 0 0 0 0 0 0 0 0 0 0 0 0 0 0 0 0 0 1
0 0 0 0 0 0 2 5 5 4 4 3 3 3 3 2 1 0 0 0 0 0 0 0 0 0 0 0 0 0 0 0 0 0 0 0 0 0 0 0 0 0 0 0 0 0 0 0 0
0 0 0 0 0 0 2 3 3 1 1 1 1 2 3 2 1 0 0 0 0 0 0 0 0 0 0 0 0 0 0 0 0 0 0 0 0 0 0 0 0 0 0 0 0 0 0 0 0
0 0 0 0 0 0 2 3 3 2 1 0 0 1 2 1 0 1 1 0 0 0 0 0 0 0 0 0 0 0 0 0 0 0 0 0 0 0 0 0 0 0 0 0 0 0 0 0 0
0 0 0 0 0 0 1 2 2 2 1 0 0 0 0 0 0 1 1 0 0 0 0 0 0 0 0 0 0 0 0 0 0 0 0 0 0 0 0 0 0 0 0 0 0 0 0 0 0
0 0 0 0 0 0 0 0 1 1 0 0 0 0 0 0 0 1 1 0 0 0 0 0 0 0 0 0 0 0 0 0 0 0 0 0 0 0 0 0 0 0 0 0 0 0 0 0 0
0 0 0 0 0 0 0 0 0 0 0 0 0 0 0 0 0 0 0 0 0 0 0 0 0 0 0 0 0 0 0 0 0 0 0 0 0 0 0 0 0 0 0 0 0 0 0 0 0
0 0 0 0 0 0 0 0 0 0 0 0 0 0 0 0 0 0 0 0 0 0 0 0 0 0 0 0 0 0 0 0 0 0 0 0 0 0 0 0 0 0 0 0 0 0 0 0 0
0 0 0 0 0 0 0 0 0 0 0 0 0 0 0 0 0 0 0 0 0 0 0 0 0 0 0 0 0 0 0 0 0 0 0 0 0 0 0 0 0 0 0 0 0 0 0 0 0
0 0 0 0 0 0 0 0 0 0 0 0 0 0 0 0 0 0 0 0 0 0 0 0 0 0 0 0 0 0 0 0 0 0 0 0 0 0 0 0 0 0 0 0 0 0 0 0 0
0 0 0 0 0 0 0 0 0 0 0 0 0 0 0 0 0 0 0 0 0 0 0 0 0 0 0 0 0 0 0 0 0 0 0 0 0 0 0 0 0 0 0 0 0 0 0 0 0
0 0 0 0 0 0 0 0 0 0 0 0 0 0 0 0 0 0 0 0 0 0 0 0 0 0 0 0 0 0 0 0 0 0 0 0 0 0 0 0 0 0 0 0 0 0 0 0 0
0 0 0 0 0 0 0 0 0 0 0 0 0 0 0 0 0 0 0 0 0 0 0 0 0 0 0 0 0 0 0 0 0 0 0 0 0 0 0 0 0 0 0 0 0 0 0 0 0

GEFSSGP_con_prob3kmehi_042.txt.gz
EHI
0 0 0 0 0 0 0 0 0 0 0 0 3 11 14 8 1 1 1 5 17 21 12 11 30 51 64 76 85 83 74 62 52 47 46 42 33 23 15 8 3 2 2 1 0 0 0 0 0
0 0 0 0 0 0 0 0 0 0 0 0 2 8 12 7 1 0 1 8 23 27 15 10 26 47 63 74 81 79 65 46 33 26 23 21 17 12 8 5 2 1 1 0 0 0 0 0 0
0 0 0 0 0 0 0 0 0 0 0 0 0 4 8 5 1 0 2 14 32 33 18 12 22 37 52 65 70 64 49 29 15 7 5 4 3 2 1 1 1 0 0 0 0 0 0 0 0
0 0 0 0 0 0 0 1 1 0 0 0 0 3 5 4 2 2 6 20 34 32 18 14 19 27 35 44 47 43 34 21 10 4 2 1 0 0 0 0 0 0 0 0 0 0 0 0 0
0 0 0 0 0 0 0 1 2 2 2 2 3 6 8 5 4 6 9 17 26 23 15 13 17 22 24 24 25 25 21 15 9 5 2 1 0 0 0 0 0 0 0 0 0 0 0 0 0
0 0 0 0 0 0 0 2 4 6 8 8 8 11 14 11 8 8 9 12 14 14 11 9 12 16 16 14 12 12 11 8 6 4 2 1 0 0 0 0 0 0 0 0 0 0 0 0 0
0 0 0 0 0 1 1 3 8 11 14 12 9 14 20 21 18 15 14 13 12 11 10 8 7 8 10 8 6 5 4 3 3 2 1 0 0 0 0 0 0 0 0 0 0 0 0 1 1
0 0 0 0 0 0 1 4 8 14 16 14 11 16 29 38 40 36 30 22 17 12 7 6 5 5 6 5 3 2 1 1 1 0 0 0 0 0 0 0 0 0 0 0 0 0 0 1 2
0 0 0 0 0 0 2 6 10 17 25 29 31 36 50 63 65 60 47 32 20 11 5 3 3 5 5 4 1 0 0 0 0 0 1 1 1 1 0 0 0 0 0 0 0 0 0 1 2
0 0 0 0 0 0 5 12 17 27 42 50 56 66 75 79 78 70 55 36 20 10 5 2 2 3 4 3 2 1 1 2 2 1 2 3 4 2 1 1 1 0 0 0 0 0 0 1 2
0 0 0 0 0 3 10 22 31 42 52 56 63 75 81 80 74 66 55 38 24 15 9 5 2 2 2 3 3 2 1 2 3 2 2 3 4 4 3 3 2 0 0 0 0 1 1 2 3
0 0 0 2 5 12 23 33 42 48 49 50 57 66 72 69 63 56 47 36 27 19 12 6 3 1 1 2 2 1 1 2 3 3 3 3 4 6 7 6 3 0 0 0 1 1 2 3 3
0 0 1 5 12 24 35 40 41 40 39 43 52 58 59 54 47 40 32 26 21 16 9 3 1 0 0 0 0 0 0 0 1 2 3 4 5 7 9 8 3 0 0 0 1 1 1 1 1
0 0 1 5 11 21 33 36 32 27 28 35 43 46 43 37 31 24 18 15 13 9 5 2 0 0 0 0 0 0 0 0 0 1 2 3 4 5 7 6 3 1 0 0 0 0 0 0 0
0 0 0 2 4 9 18 24 20 17 21 27 30 28 26 23 18 12 9 8 7 5 3 2 1 0 0 0 0 0 0 0 0 0 0 1 1 3 3 3 2 1 0 0 0 0 0 0 0
0 0 0 0 0 2 6 10 11 11 17 20 17 14 13 12 10 6 4 3 3 3 2 2 1 0 0 0 0 0 0 0 0 0 0 0 0 1 1 1 1 0 0 0 0 0 0 0 0
0 0 0 0 0 0 1 4 7 10 13 12 8 6 6 7 5 3 2 1 1 1 1 1 0 0 0 0 0 0 0 0 0 0 0 0 0 0 0 0 0 0 0 0 0 0 0 0 0
0 0 0 0 0 0 1 4 6 7 8 6 4 3 3 3 3 1 1 0 0 0 0 0 0 0 0 0 0 0 0 0 0 0 0 0 0 0 0 0 0 0 0 0 0 0 0 0 0
0 0 0 0 0 0 1 4 5 5 4 3 2 2 1 1 1 0 0 0 0 0 0 0 0 0 0 0 0 0 0 0 0 0 0 0 0 0 0 0 0 0 0 0 0 0 0 0 0
0 0 0 0 0 0 1 2 4 4 2 1 1 1 1 0 0 0 0 0 0 0 0 0 0 0 0 0 0 0 0 0 0 0 0 0 0 0 0 0 0 0 0 0 0 0 0 0 0
0 0 0 0 0 0 0 1 2 2 0 0 0 0 0 0 0 0 0 0 0 0 0 0 0 0 0 0 0 0 0 0 0 0 0 0 0 0 0 0 0 0 0 0 0 0 0 0 0
0 0 0 0 0 0 0 0 0 0 0 0 0 0 0 0 0 0 0 0 0 0 0 0 0 0 0 0 0 0 0 0 0 0 0 0 0 0 0 0 0 0 0 0 0 0 0 0 0
0 0 0 0 0 0 0 0 0 0 0 0 0 0 0 0 0 0 0 0 0 0 0 0 0 0 0 0 0 0 0 0 0 0 0 0 0 0 0 0 0 0 0 0 0 0 0 0 0
0 0 0 0 0 0 0 0 0 0 0 0 0 0 0 0 0 0 0 0 0 0 0 0 0 0 0 0 0 0 0 0 0 0 0 0 0 0 0 0 0 0 0 0 0 0 0 0 0
0 0 0 0 0 0 0 0 0 0 0 0 0 0 0 0 0 0 0 0 0 0 0 0 0 0 0 0 0 0 0 0 0 0 0 0 0 0 0 0 0 0 0 0 0 0 0 0 0
0 0 0 0 0 0 0 0 0 0 0 0 0 0 0 0 0 0 0 0 0 0 0 0 0 0 0 0 0 0 0 0 0 0 0 0 0 0 0 0 0 0 0 0 0 0 0 0 0
0 0 0 0 0 0 0 0 0 0 0 0 0 0 0 0 0 0 0 0 0 0 0 0 0 0 0 0 0 0 0 0 0 0 0 0 0 0 0 0 0 0 0 0 0 0 0 0 0
0 0 0 0 0 0 0 0 0 0 0 0 0 0 0 0 0 0 0 0 0 0 0 0 0 0 0 0 0 0 0 0 0 0 0 0 0 0 0 0 0 0 0 0 0 0 0 0 0
0 0 0 0 0 0 0 0 0 0 0 0 0 0 0 0 0 0 0 0 0 0 0 0 0 0 0 0 0 0 0 0 0 0 0 0 0 0 0 0 0 0 0 0 0 0 0 0 0
0 0 0 0 0 0 0 0 0 0 0 0 0 0 0 0 0 0 0 0 0 0 0 0 0 0 0 0 0 0 0 0 0 0 0 0 0 0 0 0 0 0 0 0 0 0 0 0 0

GEFSSGP_con_prob3kmehi_048.txt.gz
EHI
0 0 0 0 0 0 0 0 0 0 0 0 0 0 1 1 2 2 2 1 1 2 1 0 1 6 11 15 24 41 59 67 67 64 56 44 29 14 5 1 0 0 0 0 0 0 0 0 0
0 0 0 0 0 0 0 0 0 0 0 0 0 0 1 2 3 2 1 1 2 2 1 1 2 4 7 13 23 36 49 55 57 53 44 31 17 8 3 1 0 0 0 0 0 0 0 0 0
0 0 0 0 0 0 0 0 0 0 0 0 0 1 3 4 2 1 0 1 2 3 3 4 3 3 5 8 14 21 29 34 35 31 23 13 6 2 1 0 0 0 0 0 0 0 0 0 0
0 0 0 0 0 0 0 0 0 0 0 0 0 3 7 8 4 1 0 1 2 3 4 6 6 4 4 4 5 7 11 14 14 11 7 3 1 0 0 0 0 0 0 0 0 0 0 0 0
0 0 0 0 0 0 1 2 2 1 0 0 1 5 11 12 9 5 2 0 1 2 3 6 7 6 6 6 5 5 5 5 4 3 1 0 0 0 0 0 0 0 0 0 0 0 0 0 0
0 0 0 0 0 1 4 7 7 4 3 2 2 7 13 15 13 9 4 1 1 1 2 5 7 7 9 10 10 8 6 4 3 2 1 0 0 0 0 0 0 0 0 0 0 0 0 0 0
0 0 0 0 0 1 5 13 16 13 10 6 2 7 17 23 21 13 7 5 3 1 1 2 4 5 7 10 11 10 8 5 3 2 1 0 0 0 0 0 0 0 0 0 0 0 0 0 0
0 0 0 0 0 0 3 11 19 20 17 11 7 14 30 40 35 24 16 12 7 3 0 1 2 2 2 4 8 9 7 5 4 2 1 0 0 0 1 2 2 1 1 1 0 0 0 0 0
0 0 0 0 0 1 2 6 12 16 19 24 30 42 57 61 51 37 26 18 10 4 2 2 2 1 0 2 4 6 6 6 5 2 1 0 1 2 4 5 6 4 2 2 1 0 0 0 0
0 0 0 0 1 2 2 3 4 8 19 38 60 75 80 75 58 40 27 18 10 6 4 3 4 3 2 3 5 5 6 5 4 3 3 3 5 6 7 9 10 7 3 2 3 3 2 2 2
0 0 0 0 2 3 3 4 6 13 29 51 70 81 82 76 59 40 27 18 13 10 6 5 6 7 7 8 7 6 6 5 3 3 5 8 10 10 11 13 14 11 7 7 9 9 7 6 7
0 0 0 0 1 2 3 6 13 27 45 60 68 72 75 74 61 44 32 25 20 17 12 8 9 12 13 11 8 6 6 4 2 3 5 9 11 12 15 19 20 17 15 15 16 14 11 10 10
0 0 0 0 1 1 1 6 19 36 52 65 71 71 72 69 58 44 36 31 27 24 18 11 11 14 14 11 7 4 4 3 2 3 5 7 9 10 14 19 19 18 21 20 16 13 12 11 11
0 0 0 0 1 0 1 5 18 34 47 60 69 71 68 61 49 38 33 30 28 25 18 11 10 11 11 8 4 2 2 1 1 2 3 5 6 7 9 12 13 13 16 16 12 10 9 9 8
0 0 0 0 0 0 1 6 18 30 39 50 60 61 57 50 41 33 27 24 23 20 14 10 7 6 6 5 2 1 0 0 0 1 1 2 3 4 4 5 7 6 7 8 7 5 5 5 4
0 0 0 0 0 0 0 6 18 26 33 41 47 45 42 39 32 24 18 15 15 13 11 8 5 3 2 2 1 0 0 0 0 0 0 0 1 1 1 2 2 2 1 3 2 2 2 2 2
0 0 0 0 0 0 0 5 15 22 27 34 34 30 28 26 21 13 8 7 8 7 6 5 3 1 0 0 0 0 0 0 0 0 0 0 0 0 0 0 0 0 1 1 1 0 1 1 1
0 0 0 0 0 0 0 5 12 18 21 23 21 18 16 14 12 7 3 3 3 3 3 3 2 1 0 0 0 0 0 0 0 0 0 0 0 0 0 0 0 0 0 0 0 0 0 0 0
0 0 0 0 0 0 0 3 9 14 16 14 11 8 7 7 7 5 2 1 1 1 1 1 1 1 1 0 0 0 0 0 0 0 0 0 0 0 0 0 0 0 0 0 0 0 0 0 0
0 0 0 0 0 0 0 3 6 10 11 8 5 3 2 3 4 3 1 0 0 0 0 1 2 3 3 1 1 0 0 0 0 0 0 0 0 0 0 0 0 0 0 0 0 0 0 0 0
0 0 0 0 0 0 0 1 4 6 6 5 3 2 1 1 1 1 0 0 0 0 1 3 7 8 7 5 2 1 0 0 0 0 0 0 0 0 0 0 0 0 0 0 0 0 0 0 0
0 0 0 0 0 0 0 0 2 3 4 4 4 3 2 1 0 0 0 0 0 0 2 7 12 16 14 10 4 1 0 0 0 0 0 0 0 0 0 0 0 0 0 0 0 0 0 0 0
0 0 0 0 0 0 0 0 0 1 3 4 4 3 2 1 0 0 0 1 1 1 3 9 18 23 20 12 6 2 1 0 0 0 0 0 0 0 0 0 0 0 0 0 0 0 0 0 0
0 0 0 0 0 0 0 0 0 0 1 2 3 2 2 1 0 0 1 2 2 2 4 8 15 20 17 10 4 2 1 0 0 0 0 0 0 0 0 0 0 0 0 0 0 0 0 0 0
0 0 0 0 0 0 0 0 0 0 0 0 1 1 2 2 1 0 1 2 2 2 3 4 7 9 8 4 2 1 0 0 0 0 0 0 0 0 0 0 0 0 0 0 0 0 0 0 0
0 0 0 0 0 0 0 0 0 0 0 0 0 0 1 1 0 0 0 1 1 1 1 1 1 2 2 1 0 0 0 0 0 0 0 0 0 0 0 0 0 0 0 0 0 0 0 0 0
0 0 0 0 0 0 0 0 0 0 0 0 0 0 0 0 0 0 0 0 0 0 0 0 1 1 1 0 0 0 0 0 0 0 0 0 0 0 0 0 0 0 0 0 0 0 0 0 0
0 0 0 0 0 0 0 0 0 0 0 0 0 0 0 0 0 0 0 0 0 0 0 0 0 0 0 0 0 0 0 0 0 0 0 0 0 0 0 0 0 0 0 0 0 0 0 0 0
0 0 0 0 0 0 0 0 0 0 0 0 0 0 0 0 0 0 0 0 0 0 0 0 0 0 0 0 0 0 0 0 0 0 0 0 0 0 0 0 0 0 0 0 0 0 0 0 0
0 0 0 0 0 0 0 0 0 0 0 0 0 0 0 0 0 0 0 0 0 0 0 0 0 0 0 0 0 0 0 0 0 0 0 0 0 0 0 0 0 0 0 0 0 0 0 0 0

GEFSSGP_con_prob3kmehi_054.txt.gz
EHI
1 1 1 0 0 0 0 0 0 0 0 0 0 4 13 14 7 6 24 51 51 23 9 14 21 20 13 8 4 3 4 6 9 10 9 6 3 1 1 0 0 0 0 0 0 0 0 0 0
1 1 1 0 0 0 0 0 0 0 0 0 2 5 8 7 4 6 20 38 34 15 7 12 17 16 12 10 8 8 10 13 15 14 11 8 4 3 2 1 0 0 0 0 0 0 0 0 0
0 0 0 0 0 0 0 0 0 0 0 2 6 11 9 4 3 6 14 26 29 16 7 10 13 12 9 8 10 12 14 16 18 16 12 8 5 3 2 1 0 0 0 0 0 0 0 0 0
0 0 0 0 0 0 0 0 0 1 2 6 16 22 18 10 6 5 11 27 38 25 10 8 10 8 5 5 7 9 9 10 11 10 8 5 3 1 1 0 0 0 0 0 0 0 0 0 0
0 0 0 0 0 0 0 0 2 3 5 13 28 34 26 15 7 3 10 29 43 37 17 8 8 8 5 4 4 4 4 4 4 3 2 1 1 0 0 0 0 0 0 0 0 0 0 0 0
0 0 0 0 0 0 0 1 4 7 9 19 36 41 29 15 6 2 8 28 50 50 27 10 7 7 7 6 4 3 3 2 1 1 0 0 0 0 0 0 0 0 0 0 0 0 0 0 0
0 0 0 0 0 1 1 4 8 11 13 20 32 37 28 16 7 4 11 33 58 55 29 9 5 5 6 6 4 2 1 1 0 0 0 0 0 0 0 0 0 0 0 0 0 0 0 0 0
0 0 0 0 0 2 3 6 11 16 21 27 35 41 36 22 12 11 20 41 59 53 31 15 7 3 3 4 2 1 0 0 0 0 1 2 1 1 1 2 1 1 1 0 0 0 0 0 1
0 0 0 0 0 1 3 5 9 18 31 45 57 60 47 29 19 22 34 50 59 56 45 32 21 11 6 4 2 1 0 0 0 1 2 3 2 2 4 6 5 4 3 2 0 0 0 1 3
0 0 0 0 0 0 1 2 6 18 37 57 71 68 48 29 25 33 47 58 64 64 56 46 37 30 22 15 8 5 3 2 2 3 4 4 4 5 9 14 14 9 6 5 5 3 1 2 3
0 0 0 0 0 0 0 1 8 22 39 55 63 54 38 27 30 42 55 64 70 69 59 50 50 51 45 33 21 13 9 5 5 6 6 7 11 14 20 26 24 16 11 12 13 10 6 4 5
0 0 0 0 0 0 1 5 17 32 42 46 46 40 32 32 42 55 65 73 78 75 65 58 60 62 58 45 28 16 10 7 7 7 7 10 15 21 28 33 30 23 18 18 20 16 11 7 6
0 0 0 0 0 0 2 9 22 36 39 38 39 40 41 50 63 73 79 83 86 81 74 68 63 59 52 39 23 12 8 6 5 6 8 10 12 17 22 27 29 25 21 21 22 19 14 10 8
0 0 0 0 0 0 2 8 19 30 34 36 44 54 64 72 81 87 90 89 88 84 77 66 53 43 33 21 12 7 5 3 2 3 4 5 6 8 11 15 21 22 19 18 19 18 15 11 9
0 0 0 0 0 0 1 5 14 23 28 37 53 68 78 83 86 89 90 87 84 80 70 53 37 27 17 8 5 4 3 1 0 0 1 1 2 4 5 8 14 17 15 12 13 14 13 10 8
0 0 0 0 0 0 0 5 11 16 22 36 56 69 77 81 82 82 81 79 76 71 61 44 29 19 12 5 2 2 1 0 0 0 0 0 0 1 3 5 9 11 9 8 9 10 12 10 8
0 0 0 0 0 0 0 4 8 11 17 33 53 65 70 73 73 70 67 65 63 60 54 42 28 16 8 4 2 1 1 0 0 0 0 0 0 0 1 2 3 4 4 5 6 9 9 8 8
0 0 0 0 0 0 0 3 7 12 18 31 47 57 59 59 58 54 50 46 46 47 44 35 23 13 6 3 2 2 1 1 0 0 0 0 0 0 0 0 0 0 1 3 4 5 5 4 4
0 0 0 0 0 0 1 2 8 15 22 30 38 42 42 41 40 36 32 28 27 29 30 24 16 10 6 4 4 4 4 2 1 0 0 0 0 0 0 0 0 0 0 1 1 1 1 1 1
0 0 0 0 0 0 1 2 8 16 23 27 27 25 25 27 26 22 17 14 13 15 18 17 15 14 13 11 9 7 5 4 2 1 0 0 0 0 0 0 0 0 0 0 0 0 0 0 0
0 0 0 0 0 0 1 2 6 13 19 22 22 20 19 20 20 17 12 7 6 8 12 18 27 32 29 24 15 7 4 3 2 1 0 0 0 0 0 0 0 0 0 0 0 0 0 0 0
0 0 0 0 0 0 0 2 6 9 12 16 18 19 18 15 16 17 12 6 4 6 14 32 51 56 50 37 21 8 3 1 1 1 1 1 0 0 0 0 0 0 0 0 0 0 0 0 0
0 0 0 0 0 0 0 2 4 5 6 10 12 16 16 13 12 12 11 7 5 7 21 48 71 75 66 49 29 13 4 1 0 1 2 1 0 0 0 0 0 0 0 0 0 0 0 0 0
0 0 0 0 0 0 0 1 2 2 3 4 6 11 16 15 10 9 8 9 9 12 26 53 77 81 70 53 32 17 8 3 1 1 1 0 0 0 0 0 0 0 0 0 0 0 0 0 0
0 0 0 0 0 0 0 0 1 1 1 1 3 8 15 16 11 8 7 10 13 17 28 52 72 75 63 46 28 16 8 4 2 1 0 0 0 0 0 0 0 0 0 0 0 0 0 0 0
0 0 0 0 0 0 0 0 0 0 0 0 1 5 10 12 10 6 5 8 13 18 29 48 64 64 51 35 23 14 7 3 1 0 0 0 0 0 0 0 0 0 0 0 0 0 0 0 0
0 0 0 0 0 0 0 0 0 0 0 0 1 3 5 7 7 6 4 5 9 19 30 44 53 51 36 24 16 10 5 2 0 0 0 0 0 0 0 0 0 0 0 0 0 0 0 0 0
0 0 0 0 0 0 0 0 0 0 0 0 1 2 2 3 4 5 4 4 8 17 28 35 39 35 23 13 8 4 3 2 1 1 0 0 0 0 0 0 0 0 0 0 0 0 0 0 0
0 0 0 0 0 0 0 0 0 0 0 0 0 0 0 0 1 2 2 4 7 12 17 22 24 21 13 6 2 1 1 1 2 1 0 0 0 0 0 0 0 0 0 0 0 0 0 0 0
0 0 0 0 0 0 0 0 0 0 0 0 0 0 0 0 0 0 1 3 6 7 10 13 14 12 7 2 0 0 0 0 1 1 0 0 0 0 0 0 0 0 0 0 0 0 0 0 0

GEFSSGP_con_prob3kmehi_060.txt.gz
EHI
6 2 0 0 0 0 0 0 0 0 0 2 6 8 9 7 4 2 4 24 60 70 53 48 50 44 33 27 19 9 2 0 0 0 0 0 0 0 0 0 0 0 0 0 0 0 0 0 0
3 1 0 0 0 0 0 0 0 1 2 5 10 14 13 10 7 5 7 30 64 73 59 56 62 57 44 35 25 13 5 2 1 0 0 0 0 0 0 0 0 0 0 0 0 0 0 0 0
1 0 0 0 0 0 0 0 1 2 6 10 16 19 17 12 8 5 10 35 64 70 62 66 73 70 60 51 40 27 16 8 3 1 0 0 0 0 0 0 0 0 0 0 0 0 0 0 0
0 0 0 0 0 0 2 3 4 5 10 16 21 22 19 16 15 11 14 34 57 60 55 62 72 74 71 65 55 41 27 15 7 2 1 0 0 0 0 0 0 0 0 0 0 0 0 0 0
0 0 0 0 0 1 4 7 10 14 19 22 25 26 25 27 30 20 13 27 46 46 41 50 65 72 71 66 55 42 28 16 7 3 1 0 0 0 0 0 0 0 0 0 0 0 0 0 0
0 0 0 0 0 2 6 10 17 25 28 26 27 29 30 35 36 23 11 16 29 32 30 37 50 57 57 50 38 28 20 11 5 3 1 0 0 0 0 0 0 0 0 0 0 0 0 0 0
0 0 0 0 0 1 5 11 20 27 28 24 25 26 29 34 35 25 14 11 15 21 22 24 28 31 31 27 20 15 11 7 3 1 0 0 0 0 0 0 0 0 0 0 0 0 0 0 0
0 0 0 0 0 0 3 9 16 21 20 19 20 22 27 36 41 36 25 15 12 12 13 12 11 11 12 11 10 8 6 3 1 0 0 0 0 0 0 0 0 0 0 1 1 1 0 0 0
0 0 0 0 0 0 2 7 10 12 14 14 16 20 29 44 55 52 37 24 15 8 5 5 5 5 4 4 5 4 3 1 0 0 0 0 0 0 0 0 1 1 1 2 2 1 0 0 0
0 0 0 0 0 1 3 5 7 8 9 11 14 20 33 53 65 61 47 32 20 11 4 2 3 2 2 3 3 1 1 0 0 0 0 0 0 0 0 0 2 3 3 3 2 1 0 0 0
0 0 0 0 0 1 2 4 6 7 6 8 13 20 34 51 61 59 51 41 30 19 11 6 3 3 3 2 1 0 0 0 0 0 0 0 0 0 0 0 1 3 3 2 1 1 0 0 0
0 0 0 0 0 1 2 4 6 7 6 7 13 23 33 42 48 53 54 51 44 35 25 15 8 5 3 1 0 0 0 0 0 0 0 0 0 0 0 0 0 1 1 1 1 1 0 0 1
0 0 0 0 0 2 5 7 7 8 9 11 17 25 30 34 40 48 56 57 54 48 37 23 12 6 3 1 0 0 0 0 0 0 0 0 0 0 0 0 0 0 0 0 0 0 0 0 1
0 0 0 0 0 3 7 8 8 9 12 15 18 21 25 29 36 46 55 57 55 49 38 24 13 7 4 2 1 0 0 0 0 0 0 0 0 0 0 0 0 0 0 0 0 0 0 0 1
0 0 0 0 0 2 5 6 6 9 11 15 17 18 20 26 35 46 53 54 49 40 29 18 10 6 4 2 1 0 0 0 0 0 0 0 0 0 0 0 0 0 0 0 0 0 0 0 0
0 0 0 0 0 1 2 3 5 9 11 14 17 18 20 26 35 45 49 46 39 28 17 9 5 3 2 1 0 0 0 0 0 0 0 0 0 0 0 0 0 0 0 0 0 0 0 0 0
0 0 0 0 0 0 1 1 4 8 12 13 16 18 22 25 30 34 36 33 26 16 8 3 1 1 0 0 0 0 0 0 0 0 0 0 0 0 0 0 0 0 0 0 0 0 0 0 0
0 0 0 0 0 0 0 1 3 7 10 14 16 16 19 21 21 20 21 20 15 8 3 1 0 0 0 0 0 0 0 0 0 0 0 0 0 0 0 0 0 0 0 0 0 0 0 0 0
0 0 0 0 0 0 0 1 3 6 10 14 15 15 15 15 14 13 12 12 9 4 1 0 0 0 0 0 0 0 0 0 0 0 0 0 0 0 0 0 0 0 0 0 0 0 0 0 0
0 0 0 0 0 0 0 0 1 4 9 13 15 16 15 13 12 10 9 7 4 1 0 0 0 0 0 0 0 0 0 0 0 0 0 0 0 0 0 0 0 0 0 0 0 0 0 0 0
0 0 0 0 0 0 0 0 0 3 8 12 15 17 17 16 13 10 7 4 2 0 0 0 0 0 0 0 0 0 0 0 0 0 0 0 0 0 0 0 0 0 0 0 0 0 0 0 0
0 0 0 0 0 0 0 0 0 2 7 12 15 18 20 19 16 11 8 5 3 1 0 0 0 0 0 0 0 0 0 0 0 0 0 0 0 0 0 0 0 0 0 0 0 0 0 0 0
0 0 0 0 0 0 0 0 0 1 4 9 15 20 22 20 15 12 9 6 3 1 0 1 1 1 0 0 0 0 0 0 0 0 0 0 0 0 0 0 0 0 0 0 0 0 0 0 0
0 0 0 0 0 0 0 0 0 0 1 4 11 18 20 18 14 11 10 6 3 2 2 3 3 1 0 1 0 0 0 0 0 0 0 0 0 0 0 0 0 0 0 0 0 0 0 0 0
0 0 0 0 0 0 0 0 0 0 0 1 6 11 16 16 13 11 10 7 5 4 5 6 4 1 1 1 0 0 0 0 0 0 0 0 0 0 0 0 0 0 0 0 0 0 0 0 0
0 0 0 0 0 0 0 0 0 0 0 0 2 4 8 11 11 10 10 9 9 9 9 9 5 3 3 2 0 0 0 0 0 0 0 0 0 0 0 0 0 0 0 0 0 0 0 0 0
0 0 0 0 0 0 0 0 0 0 0 0 0 1 2 5 8 9 9 10 10 11 13 13 11 8 6 4 2 0 0 0 0 0 0 0 0 0 0 0 0 0 0 0 0 0 0 0 0
0 0 0 0 0 0 0 0 0 0 0 1 0 0 0 2 5 6 7 7 7 10 15 18 15 11 8 6 4 1 0 0 0 0 0 0 0 0 0 0 0 0 0 0 0 0 0 0 0
0 0 0 0 0 0 0 0 0 0 0 0 0 0 0 1 3 3 4 4 4 8 14 16 13 10 8 6 3 1 0 0 0 0 0 0 0 0 0 0 0 0 0 0 0 0 0 0 0
0 0 0 0 0 0 0 0 0 0 0 0 0 0 0 0 1 3 3 2 3 8 12 12 9 8 7 5 2 0 0 0 0 0 0 0 0 0 0 0 0 0 0 0 0 0 0 0 0

GEFSSGP_con_prob3kmehi_066.txt.gz
EHI
0 0 0 0 0 0 0 0 0 0 0 1 1 1 0 0 1 1 1 4 14 22 17 15 30 47 55 55 52 46 32 18 10 6 4 1 0 0 0 0 0 0 0 0 0 0 0 0 0
0 0 0 0 0 0 0 0 0 0 1 1 1 0 0 1 2 2 2 7 20 29 22 20 36 52 58 58 55 49 34 19 11 8 4 1 0 0 0 0 0 0 0 0 0 0 0 0 0
0 0 0 0 0 0 0 0 0 1 2 2 1 0 1 2 3 4 4 12 30 39 30 30 47 60 64 63 59 50 34 20 13 8 4 1 0 0 0 0 0 0 0 0 0 0 0 0 0
0 0 0 0 0 0 0 0 1 3 4 4 2 1 1 2 3 6 12 23 41 48 41 43 58 68 66 63 59 50 33 20 13 8 4 1 0 0 0 0 0 0 0 0 0 0 0 0 0
0 0 0 0 0 0 0 1 3 6 7 6 4 3 3 4 7 13 23 36 49 55 50 51 63 70 66 63 60 50 33 20 13 7 3 1 0 0 0 0 0 0 0 0 0 0 0 0 0
0 0 0 0 0 0 0 1 5 8 10 9 7 5 4 7 12 20 31 43 52 57 53 51 59 65 64 62 57 46 30 18 11 5 2 1 0 0 0 0 0 0 0 0 0 0 0 0 0
0 0 0 0 0 0 0 2 5 8 10 9 8 6 5 8 16 25 35 44 50 53 52 50 49 50 51 50 45 34 23 14 8 4 1 0 0 0 0 0 0 0 0 0 0 0 0 0 0
0 0 0 0 0 0 1 3 5 7 8 9 8 6 7 12 21 28 35 41 42 42 43 41 37 34 32 32 29 23 17 11 7 4 2 1 0 0 0 0 0 0 0 0 0 0 0 0 0
0 0 0 0 0 0 2 4 6 6 7 8 8 10 17 26 31 30 30 31 28 27 27 26 25 25 24 22 19 15 12 8 6 4 3 2 0 0 0 0 1 1 0 0 0 0 0 0 0
0 0 0 0 0 0 2 4 5 5 6 8 13 21 33 40 35 26 23 19 14 12 13 14 17 20 21 18 12 9 7 5 3 2 1 1 0 0 0 1 2 2 0 0 0 0 0 0 0
0 0 0 0 0 0 1 2 4 4 4 8 19 34 44 42 31 20 14 11 7 5 5 9 13 14 13 10 7 5 3 1 1 0 0 0 0 0 0 0 1 1 0 0 0 0 0 0 0
0 0 0 0 0 1 2 3 3 3 4 9 21 37 44 38 26 16 10 8 6 3 3 7 10 8 4 4 4 3 1 0 0 0 0 0 0 0 0 0 0 0 0 0 0 0 0 1 1
0 0 0 0 0 2 5 4 2 2 4 11 23 33 36 32 24 17 12 10 7 3 3 5 6 3 1 1 1 1 0 0 0 0 0 0 0 0 0 0 0 0 0 0 0 0 0 0 0
0 0 0 0 0 3 5 4 1 2 7 16 25 29 29 26 23 19 17 13 8 4 4 5 3 1 0 0 0 0 0 0 0 0 0 0 0 0 0 0 0 0 0 0 0 0 0 0 0
0 0 0 0 0 2 4 2 1 5 11 18 22 23 23 22 20 18 17 14 9 5 4 4 3 1 0 0 0 0 0 0 0 0 0 0 0 0 0 0 0 0 0 0 0 0 0 0 0
0 0 0 0 0 2 2 1 2 8 15 17 15 14 15 16 16 14 14 13 9 7 5 4 2 1 0 0 0 0 0 0 0 0 0 0 0 0 0 0 0 0 0 0 0 0 0 0 0
0 0 0 0 0 1 1 0 2 9 14 13 9 8 10 12 11 10 11 11 9 7 5 3 1 0 0 0 0 0 0 0 0 0 0 0 0 0 0 0 0 0 0 0 0 0 0 0 0
0 0 0 0 0 0 0 0 2 7 11 9 7 7 9 10 8 7 9 9 7 6 3 1 0 0 0 0 0 0 0 0 0 0 0 0 0 0 0 0 0 0 0 0 0 0 0 0 0
0 0 0 0 0 0 0 0 1 6 8 7 6 6 7 8 6 5 6 7 6 3 1 0 0 0 0 0 0 0 0 0 0 0 0 0 0 0 0 0 0 0 0 0 0 0 0 0 0
0 0 0 0 0 0 0 0 1 3 5 5 5 5 6 7 7 5 4 5 3 1 0 0 0 0 0 0 0 0 0 0 0 0 0 0 0 0 0 0 0 0 0 0 0 0 0 0 0
0 0 0 0 0 0 0 0 0 1 2 3 4 5 6 7 7 5 4 3 1 0 0 0 0 0 0 0 0 0 0 0 0 0 0 0 0 0 0 0 0 0 0 0 0 0 0 0 0
0 0 0 0 0 0 0 0 0 0 1 1 3 5 7 7 6 6 4 3 1 0 0 0 0 0 0 0 0 0 0 0 0 0 0 0 0 0 0 0 0 0 0 0 0 0 0 0 0
0 0 0 0 0 0 0 0 0 0 0 0 2 5 7 7 7 6 5 3 1 0 0 0 0 0 0 0 0 0 0 0 0 0 0 0 0 0 0 0 0 0 0 0 0 0 0 0 0
0 0 0 0 0 0 0 0 0 0 0 0 0 2 5 7 8 7 6 4 2 0 0 0 0 0 0 0 0 0 0 0 0 0 0 0 0 0 0 0 0 0 0 0 0 0 0 0 0
0 0 0 0 0 0 0 0 0 0 0 0 0 1 3 6 8 7 6 4 2 0 0 0 0 0 0 0 0 0 0 0 0 0 0 0 0 0 0 0 0 0 0 0 0 0 0 0 0
0 0 0 0 0 0 0 0 0 0 0 0 0 0 2 4 6 7 6 4 3 2 0 0 0 0 0 0 0 0 0 0 0 0 0 0 0 0 0 0 0 0 0 0 0 0 0 0 0
0 0 0 0 0 0 0 0 0 0 0 0 0 0 0 2 4 5 5 4 5 4 2 0 0 0 0 0 0 0 0 0 0 0 0 0 0 0 0 0 0 0 0 0 0 0 0 0 0
0 0 0 0 0 0 0 0 0 0 0 0 0 0 0 0 1 2 3 4 5 5 3 1 0 0 0 0 0 0 0 0 0 0 0 0 0 0 0 0 0 0 0 0 0 0 0 0 0
0 0 0 0 0 0 0 0 0 0 0 0 0 0 0 0 0 0 1 2 4 4 3 1 0 0 0 0 0 0 0 0 0 0 0 0 0 0 0 0 0 0 0 0 0 0 0 0 0
0 0 0 0 0 0 0 0 0 0 0 0 0 0 0 0 0 0 0 1 3 2 1 1 0 0 0 0 0 0 0 0 0 0 0 0 0 0 0 0 0 0 0 0 0 0 0 0 0

GEFSSGP_con_prob3kmehi_072.txt.gz
EHI
0 0 0 0 0 0 0 0 0 0 1 2 1 1 2 2 1 2 2 1 1 4 7 6 3 3 8 18 28 34 35 29 20 10 5 3 3 2 1 0 0 0 0 0 0 0 0 0 0
0 0 0 0 0 0 0 0 0 0 1 1 1 1 1 1 2 2 3 2 2 4 6 6 4 3 8 18 25 30 31 26 17 10 5 3 3 1 0 0 0 0 0 0 0 0 0 0 0
0 0 0 0 0 0 0 0 0 0 0 0 1 1 1 1 2 2 4 3 2 3 5 6 5 5 7 15 21 24 24 19 13 9 5 3 2 1 0 0 0 0 0 0 0 0 0 0 0
0 0 0 0 0 0 0 0 0 0 0 0 1 3 4 4 4 4 4 3 2 2 3 5 7 7 9 14 19 20 18 13 9 7 5 3 2 0 0 0 0 0 0 0 0 0 0 0 0
0 0 0 0 0 0 0 0 0 0 0 0 1 4 9 11 12 10 5 1 1 1 2 5 10 12 13 17 20 20 16 11 7 5 4 2 1 0 0 0 0 0 0 0 0 0 0 0 0
0 0 0 0 0 0 0 0 0 1 1 2 2 5 13 22 24 18 8 2 0 0 1 6 11 12 14 18 22 22 19 13 7 4 3 1 1 0 0 0 0 0 0 0 0 0 0 0 0
0 0 0 0 0 0 0 0 1 2 2 2 3 6 17 32 36 26 14 5 1 0 1 5 6 6 8 13 18 20 19 14 8 5 3 1 1 0 0 0 0 0 0 0 0 0 0 0 0
0 0 0 0 0 0 0 1 3 3 2 2 4 8 21 40 46 37 23 13 6 2 1 2 1 1 2 5 9 13 13 10 7 5 3 2 1 0 0 0 0 0 0 0 0 0 1 1 1
0 0 0 0 0 0 0 1 2 2 1 2 7 15 28 45 52 47 35 24 16 7 2 1 1 2 1 1 3 5 5 5 4 3 2 1 1 0 0 1 1 1 0 0 0 1 1 1 0
0 0 0 0 0 0 0 0 1 1 0 3 11 21 34 44 49 47 40 31 22 14 7 4 3 3 2 2 3 2 2 2 2 1 1 1 0 0 1 2 2 1 0 0 0 1 1 1 0
0 0 0 0 0 0 0 0 0 0 0 3 10 21 33 39 38 36 33 26 22 18 13 9 6 5 4 4 5 4 2 2 2 2 1 1 0 0 0 1 1 1 0 0 0 0 0 0 0
0 0 0 0 0 0 0 0 0 0 0 2 7 18 31 34 29 27 26 21 20 21 18 13 11 10 9 8 7 5 2 2 3 3 2 1 0 0 0 0 0 0 0 0 0 0 0 0 0
0 0 0 0 0 0 0 0 0 0 0 2 6 16 28 29 25 26 26 23 22 23 22 20 17 14 12 11 7 3 2 3 3 3 1 0 0 0 0 0 0 0 0 0 0 0 0 1 1
0 0 0 0 0 0 0 0 0 0 1 4 9 16 24 26 25 27 28 26 24 24 25 24 21 16 12 9 6 2 3 4 3 1 0 0 0 0 0 0 0 0 0 0 0 0 1 2 3
0 0 0 0 0 0 0 0 1 2 4 7 11 14 19 25 26 26 26 25 23 23 24 23 20 15 10 6 4 3 3 3 1 0 0 0 0 0 0 0 0 0 0 0 0 0 1 3 4
0 0 0 0 0 0 0 0 1 4 6 8 10 11 16 22 23 22 22 22 22 23 22 21 17 13 7 4 3 3 3 2 1 0 0 0 0 0 0 0 0 0 0 0 0 0 1 2 2
0 0 0 0 0 0 0 0 1 4 7 8 10 11 14 18 17 17 19 20 21 21 21 19 15 9 6 4 4 4 3 1 0 0 0 0 0 0 0 0 0 0 0 0 0 0 1 1 1
0 0 0 0 0 0 0 0 1 4 6 8 11 14 15 15 15 15 17 17 17 17 17 15 11 7 6 6 4 3 2 1 0 0 0 0 0 0 0 0 0 0 0 0 0 0 0 0 0
0 0 0 0 0 0 0 0 1 4 5 7 11 15 17 16 16 17 16 14 14 14 14 10 7 6 6 4 3 2 1 0 0 0 0 0 0 0 0 0 0 0 0 0 0 0 0 0 0
0 0 0 0 0 0 0 0 1 2 3 4 8 12 15 17 17 16 14 12 12 12 10 6 4 5 4 2 1 1 0 0 0 0 0 0 0 0 0 0 0 0 0 0 0 0 0 0 0
0 0 0 0 0 0 0 0 0 1 1 2 5 9 13 16 16 15 13 11 9 8 6 3 3 3 2 1 0 0 0 0 0 0 0 0 0 0 0 0 0 0 0 0 0 0 0 0 0
0 0 0 0 0 0 0 0 0 0 0 1 3 6 10 14 16 15 14 10 6 4 3 2 2 1 0 0 0 0 0 0 0 0 0 0 0 0 0 0 0 0 0 0 0 0 0 0 0
0 0 0 0 0 0 0 0 0 0 0 0 1 4 9 12 14 14 13 9 5 3 3 2 1 0 0 0 0 0 0 0 0 0 0 0 0 0 0 0 0 0 0 0 0 0 0 0 0
0 0 0 0 0 0 0 0 0 0 0 0 1 3 6 9 11 11 11 9 6 5 5 3 1 0 0 0 1 1 0 0 0 0 0 0 0 0 0 0 0 0 0 0 0 0 0 0 0
0 0 0 0 0 0 0 0 0 0 0 0 0 1 3 6 9 10 11 10 9 7 6 4 2 0 0 1 3 4 2 1 0 0 0 0 0 0 0 0 0 0 0 0 0 0 0 0 0
0 0 0 0 0 0 0 0 0 0 0 0 0 1 2 4 7 10 11 11 10 9 7 5 3 1 1 3 6 7 6 3 1 1 1 0 0 0 0 0 0 0 0 0 0 0 0 0 0
0 0 0 0 0 0 0 0 0 0 0 0 0 1 2 3 4 7 9 8 8 8 7 6 5 4 3 5 7 9 9 7 4 3 2 1 0 0 0 0 0 0 0 0 0 0 0 0 0
0 0 0 0 0 0 0 0 0 0 0 0 0 0 1 2 3 4 4 5 5 6 7 7 7 7 6 7 8 9 10 11 10 7 4 1 0 0 0 0 0 0 0 0 0 0 0 0 0
0 0 0 0 0 0 0 0 0 0 0 0 0 0 1 2 2 2 2 3 4 5 6 7 8 9 9 10 11 10 10 13 15 13 8 3 1 0 0 0 0 0 0 0 0 0 0 0 0
0 0 0 0 0 0 0 0 0 0 0 0 0 0 0 1 1 1 2 4 6 6 6 7 9 11 12 12 14 13 11 13 16 15 11 6 2 1 0 0 0 0 0 0 0 0 0 0 0

GEFSSGP_con_prob3kmehi_078.txt.gz
EHI
3 8 14 12 7 5 2 0 1 1 0 0 1 4 10 15 14 10 15 38 57 50 39 36 29 16 5 2 2 4 5 4 1 0 0 0 0 0 0 0 0 0 0 0 0 0 0 0 0
4 10 14 10 4 2 1 0 2 2 1 1 3 7 14 19 18 14 23 45 53 40 31 31 27 16 6 2 3 5 5 4 2 0 0 0 0 0 0 0 0 0 0 0 0 0 0 0 0
4 7 8 5 2 1 0 0 1 2 2 3 7 12 17 21 21 21 31 45 41 28 24 27 23 15 7 4 4 5 5 3 1 0 0 0 0 0 0 0 0 0 0 0 0 0 0 0 0
4 3 1 1 1 0 0 0 1 2 3 6 11 19 24 23 21 23 29 36 32 23 20 22 20 15 8 4 4 4 3 1 0 0 0 0 0 0 0 0 0 0 0 0 0 0 0 0 0
4 2 0 0 0 0 0 0 1 3 6 9 15 26 33 27 19 17 19 26 29 25 17 17 20 17 9 4 2 1 1 0 0 0 0 0 0 0 0 0 0 0 0 0 0 0 0 0 0
2 1 0 0 0 0 0 0 1 4 8 9 15 29 37 31 19 11 10 17 26 28 21 16 18 16 10 4 1 0 0 0 0 0 0 0 0 0 0 0 0 0 0 0 0 0 0 0 0
0 0 0 0 0 0 0 0 1 3 5 6 12 27 40 38 25 12 8 13 25 33 25 14 10 11 8 4 1 0 0 0 0 0 0 0 0 0 0 0 0 0 0 0 0 0 0 0 0
0 0 0 0 0 0 0 0 1 1 2 4 12 29 45 45 31 19 15 19 32 38 27 10 4 4 4 2 0 0 0 0 0 0 0 0 0 0 0 0 0 0 0 0 0 0 0 0 0
0 0 0 0 0 0 0 0 0 0 1 7 21 38 50 47 36 27 24 30 42 45 33 17 9 4 1 0 0 0 0 0 0 0 0 0 0 0 0 1 1 0 0 0 0 0 0 0 0
0 0 0 0 0 0 0 0 0 0 3 14 36 53 55 49 40 31 29 37 47 48 41 33 22 12 7 5 4 1 1 1 0 0 0 0 0 0 1 2 2 1 0 0 0 0 0 0 0
0 0 0 0 0 0 0 0 0 2 9 25 47 62 59 50 40 31 30 38 48 52 51 47 40 32 25 19 10 4 2 2 2 2 2 1 2 2 3 4 2 1 1 0 0 0 1 1 1
0 0 0 0 0 0 0 0 0 4 15 30 46 57 57 48 38 34 36 45 56 64 64 62 62 60 54 41 23 11 7 5 5 6 5 5 6 6 7 5 3 2 2 1 1 2 3 3 3
0 0 0 0 0 0 0 0 1 6 15 24 34 47 52 48 40 40 49 59 68 73 75 78 81 78 72 59 40 26 18 12 9 8 8 7 7 7 6 4 4 5 5 5 5 5 4 4 4
0 0 0 0 0 0 0 0 1 8 15 19 26 39 48 50 49 50 58 67 73 74 76 82 84 79 71 59 48 35 24 17 10 7 6 5 6 5 4 3 4 7 8 8 7 6 4 3 2
0 0 0 0 0 0 0 1 4 12 19 21 25 34 45 52 55 57 62 68 72 75 76 75 73 70 62 51 41 30 21 14 9 5 4 4 5 4 3 3 4 6 6 5 4 4 4 3 2
0 0 0 0 0 0 0 2 10 18 21 21 23 31 44 52 54 56 62 66 69 71 71 66 61 60 56 47 36 26 20 15 9 5 4 4 4 3 2 2 3 3 3 1 1 3 4 3 3
0 0 0 0 0 0 0 4 13 20 19 17 21 30 42 50 50 51 56 59 60 61 61 58 56 54 48 40 32 25 22 16 8 4 3 3 2 2 1 1 2 1 1 1 2 4 4 3 3
0 0 0 0 0 0 0 4 12 17 16 17 23 30 39 44 45 46 48 49 50 51 52 53 52 48 40 31 25 20 16 11 6 4 3 2 1 1 0 0 0 0 1 2 3 3 2 1 1
0 0 0 0 0 0 0 4 11 14 15 19 26 31 37 40 42 45 45 44 44 46 46 45 44 39 33 26 20 14 9 6 3 2 2 1 0 0 0 0 0 1 1 2 2 1 0 0 0
0 0 0 0 0 0 0 4 11 13 14 19 24 30 36 40 42 44 44 42 41 40 39 38 36 32 28 23 17 11 7 4 1 1 2 1 0 0 0 0 0 1 1 1 0 0 0 0 0
0 0 0 0 0 0 0 4 11 14 13 14 19 27 35 39 42 43 39 36 33 32 31 31 31 30 27 21 14 9 6 3 2 2 2 1 1 0 0 0 0 0 0 0 0 0 0 0 0
0 0 0 0 0 0 0 2 9 13 12 10 14 24 33 37 38 40 36 29 25 22 21 24 29 32 29 22 12 7 4 2 2 3 4 3 2 1 0 0 0 0 0 0 0 0 0 0 0
0 0 0 0 0 0 0 1 4 8 9 9 12 21 30 33 33 34 33 27 21 16 15 20 28 32 29 21 13 7 4 3 2 4 5 4 2 1 0 0 0 0 0 0 0 0 0 0 0
0 0 0 1 2 1 0 0 1 2 5 8 10 17 26 28 28 30 30 26 20 16 15 19 26 28 25 18 13 8 5 3 3 5 5 3 2 1 0 0 0 0 0 0 0 0 0 0 0
0 0 0 1 3 1 0 0 0 1 3 6 9 15 22 24 26 29 30 26 22 19 19 22 26 26 21 15 12 8 5 4 4 4 3 1 1 2 3 2 1 0 0 0 0 0 0 0 0
0 0 0 1 1 1 0 0 0 1 2 3 7 13 18 22 24 28 29 26 23 22 22 24 27 26 20 13 10 8 6 3 2 2 1 0 1 4 8 6 2 1 0 0 0 0 0 0 0
0 0 0 0 0 0 0 1 0 1 1 1 3 8 14 19 22 26 29 26 24 25 27 30 31 30 22 15 11 9 7 5 2 1 0 0 1 4 8 7 3 1 0 0 0 0 0 0 0
0 0 0 0 0 0 0 0 0 2 3 1 1 4 10 15 19 25 30 30 27 27 31 35 36 33 25 19 14 11 10 9 5 3 3 3 3 5 7 6 3 2 0 0 0 0 0 1 1
0 0 0 0 0 0 0 0 0 2 3 1 1 2 6 10 16 23 30 33 30 27 29 32 35 33 27 21 17 15 14 14 13 12 11 12 11 10 9 7 3 1 0 1 1 1 1 2 2
0 0 0 0 0 0 0 0 0 1 1 1 2 2 4 7 14 21 29 33 29 24 25 28 31 32 27 22 19 17 17 19 20 20 20 19 18 17 13 9 4 0 1 2 2 2 1 2 3